When you browse on this site, cookies collect data to enhance your experience and personalize the content and advertising you see.
Visit our Privacy Policy to learn more. By continuing to use the site, you agree to this use of cookies and data.
  • In Hungary
  • List of Countries
  • For 7 days
  • Water Temperature
  • Satellite Maps
  • Weather Map
  • News
  • Weather Widgets
  • user-avatar
    Login

    Hourly Weather Dabuleni

    Today, 25 March, Monday

    Time Temperature Precipitation Wind Pressure Humidity
    00:00 +12°C° 0 mm 2 mps 758 mmHg 45%
    01:00 +12°C° 0 mm 2 mps 758 mmHg 45%
    02:00 +12°C° 0 mm 2 mps 757 mmHg 43%
    03:00 +11°C° 0 mm 1 mps 757 mmHg 43%
    04:00 +11°C° 0 mm 1 mps 757 mmHg 43%
    05:00 +11°C° 0 mm 1 mps 756 mmHg 44%
    06:00 +11°C° 0 mm 1 mps 756 mmHg 43%
    07:00 +12°C° 0 mm 1 mps 756 mmHg 43%
    08:00 +13°C° 0 mm 1 mps 755 mmHg 41%
    09:00 +15°C° 0 mm 1 mps 755 mmHg 38%
    10:00 +18°C° 0 mm 1 mps 754 mmHg 35%
    11:00 +20°C° 0 mm 1 mps 754 mmHg 32%
    12:00 +20°C° 0 mm 2 mps 753 mmHg 31%
    13:00 +21°C° 0 mm 2 mps 752 mmHg 29%
    14:00 +23°C° 0 mm 2 mps 752 mmHg 27%
    15:00 +23°C° 0 mm 2 mps 751 mmHg 28%
    16:00 +23°C° 0 mm 2 mps 751 mmHg 29%
    17:00 +23°C° 0 mm 2 mps 750 mmHg 30%
    18:00 +21°C° 0 mm 2 mps 750 mmHg 33%
    19:00 +20°C° 0 mm 1 mps 750 mmHg 37%
    20:00 +18°C° 0 mm 1 mps 751 mmHg 41%
    21:00 +16°C° 0 mm 1 mps 751 mmHg 45%
    22:00 +15°C° 0 mm 2 mps 751 mmHg 50%
    23:00 +14°C° 0 mm 2 mps 751 mmHg 54%

    Tomorrow, 26 March, Tuesday

    Time Temperature Precipitation Wind Pressure Humidity
    00:00 +13°C° 0 mm 3 mps 752 mmHg 56%
    01:00 +13°C° 0 mm 3 mps 752 mmHg 57%
    02:00 +13°C° 0 mm 4 mps 752 mmHg 59%
    03:00 +12°C° 0 mm 4 mps 752 mmHg 60%
    04:00 +12°C° 0 mm 4 mps 753 mmHg 61%
    05:00 +10°C° 0 mm 5 mps 753 mmHg 62%
    06:00 +10°C° 0 mm 5 mps 753 mmHg 62%
    07:00 +10°C° 0 mm 5 mps 754 mmHg 62%
    08:00 +10°C° 0 mm 5 mps 755 mmHg 62%
    09:00 +12°C° 0 mm 5 mps 755 mmHg 58%
    10:00 +13°C° 0 mm 5 mps 755 mmHg 54%
    11:00 +14°C° 0 mm 4 mps 755 mmHg 50%
    12:00 +15°C° 0 mm 4 mps 756 mmHg 48%
    13:00 +16°C° 0 mm 3 mps 756 mmHg 45%
    14:00 +17°C° 0 mm 3 mps 756 mmHg 43%
    15:00 +16°C° 0 mm 3 mps 756 mmHg 47%
    16:00 +16°C° 0 mm 3 mps 756 mmHg 50%
    17:00 +15°C° 0 mm 4 mps 756 mmHg 54%
    18:00 +13°C° 0 mm 3 mps 757 mmHg 60%
    19:00 +12°C° 0 mm 3 mps 757 mmHg 65%
    20:00 +11°C° 0 mm 3 mps 758 mmHg 71%
    21:00 +10°C° 0 mm 3 mps 759 mmHg 71%
    22:00 +10°C° 0 mm 2 mps 759 mmHg 71%
    23:00 +9°C° 0 mm 2 mps 760 mmHg 71%

    Day after tomorrow, 27 March, Wednesday

    Time Temperature Precipitation Wind Pressure Humidity
    00:00 +9°C° 0 mm 2 mps 760 mmHg 72%
    01:00 +9°C° 0 mm 2 mps 760 mmHg 72%
    02:00 +9°C° 0 mm 2 mps 760 mmHg 72%
    03:00 +8°C° 0 mm 2 mps 760 mmHg 72%
    04:00 +8°C° 0 mm 3 mps 760 mmHg 72%
    05:00 +7°C° 0 mm 3 mps 761 mmHg 71%
    06:00 +7°C° 0 mm 4 mps 761 mmHg 69%
    07:00 +7°C° 0 mm 4 mps 761 mmHg 66%
    08:00 +7°C° 0 mm 5 mps 761 mmHg 64%
    09:00 +9°C° 0 mm 5 mps 761 mmHg 58%
    10:00 +10°C° 0 mm 5 mps 762 mmHg 52%
    11:00 +13°C° 0 mm 5 mps 762 mmHg 46%
    12:00 +13°C° 0 mm 5 mps 761 mmHg 41%
    13:00 +14°C° 0 mm 5 mps 761 mmHg 37%
    14:00 +15°C° 0 mm 5 mps 761 mmHg 33%
    15:00 +15°C° 0 mm 4 mps 761 mmHg 33%
    16:00 +15°C° 0 mm 4 mps 761 mmHg 33%
    17:00 +14°C° 0 mm 3 mps 761 mmHg 33%
    18:00 +13°C° 0 mm 3 mps 761 mmHg 38%
    19:00 +12°C° 0 mm 3 mps 762 mmHg 43%
    20:00 +10°C° 0 mm 3 mps 763 mmHg 48%
    21:00 +9°C° 0 mm 3 mps 763 mmHg 51%
    22:00 +9°C° 0 mm 2 mps 763 mmHg 54%
    23:00 +8°C° 0 mm 2 mps 764 mmHg 57%

    28 March, Thursday

    Time Temperature Precipitation Wind Pressure Humidity
    00:00 +7°C° 0 mm 2 mps 764 mmHg 62%
    01:00 +7°C° 0 mm 3 mps 764 mmHg 66%
    02:00 +7°C° 0 mm 3 mps 765 mmHg 71%
    03:00 +5°C° 0 mm 3 mps 765 mmHg 73%
    04:00 +5°C° 0 mm 3 mps 765 mmHg 74%
    05:00 +5°C° 0 mm 4 mps 765 mmHg 76%
    06:00 +5°C° 0 mm 4 mps 765 mmHg 71%
    07:00 +6°C° 0 mm 4 mps 766 mmHg 67%
    08:00 +6°C° 0 mm 4 mps 766 mmHg 62%
    09:00 +7°C° 0 mm 4 mps 766 mmHg 57%
    10:00 +8°C° 0 mm 4 mps 766 mmHg 53%
    11:00 +10°C° 0 mm 4 mps 766 mmHg 48%
    12:00 +11°C° 0 mm 4 mps 766 mmHg 45%
    13:00 +12°C° 0 mm 3 mps 765 mmHg 41%
    14:00 +13°C° 0 mm 3 mps 765 mmHg 38%
    15:00 +13°C° 0 mm 3 mps 765 mmHg 37%
    16:00 +13°C° 0 mm 3 mps 764 mmHg 36%
    17:00 +13°C° 0 mm 3 mps 764 mmHg 35%
    18:00 +11°C° 0 mm 3 mps 765 mmHg 39%
    19:00 +10°C° 0 mm 3 mps 765 mmHg 42%
    20:00 +9°C° 0 mm 2 mps 766 mmHg 45%
    21:00 +8°C° 0 mm 3 mps 766 mmHg 47%
    22:00 +7°C° 0 mm 4 mps 767 mmHg 48%
    23:00 +7°C° 0 mm 5 mps 767 mmHg 50%

    29 March, Friday

    Time Temperature Precipitation Wind Pressure Humidity
    00:00 +6°C° 0 mm 4 mps 768 mmHg 51%
    01:00 +6°C° 0 mm 4 mps 768 mmHg 52%
    02:00 +5°C° 0 mm 3 mps 768 mmHg 53%
    03:00 +5°C° 0 mm 3 mps 768 mmHg 51%
    04:00 +5°C° 0 mm 3 mps 769 mmHg 49%
    05:00 +5°C° 0 mm 3 mps 769 mmHg 47%
    06:00 +5°C° 0 mm 3 mps 769 mmHg 46%
    07:00 +5°C° 0 mm 3 mps 769 mmHg 44%
    08:00 +5°C° 0 mm 3 mps 769 mmHg 43%
    09:00 +7°C° 0 mm 3 mps 769 mmHg 40%
    10:00 +9°C° 0 mm 3 mps 769 mmHg 36%
    11:00 +10°C° 0 mm 3 mps 769 mmHg 33%
    12:00 +10°C° 0 mm 3 mps 768 mmHg 32%
    13:00 +11°C° 0 mm 3 mps 768 mmHg 31%
    14:00 +12°C° 0 mm 3 mps 767 mmHg 30%
    15:00 +12°C° 0 mm 3 mps 767 mmHg 30%
    16:00 +13°C° 0 mm 2 mps 766 mmHg 30%
    17:00 +13°C° 0 mm 2 mps 766 mmHg 30%
    18:00 +10°C° 0 mm 2 mps 766 mmHg 33%
    19:00 +10°C° 0 mm 1 mps 766 mmHg 36%
    20:00 +9°C° 0 mm 1 mps 767 mmHg 39%
    21:00 +8°C° 0 mm 1 mps 767 mmHg 42%
    22:00 +7°C° 0 mm 2 mps 767 mmHg 44%
    23:00 +6°C° 0 mm 2 mps 767 mmHg 46%

    30 March, Saturday

    Time Temperature Precipitation Wind Pressure Humidity
    00:00 +6°C° 0 mm 2 mps 766 mmHg 47%
    01:00 +6°C° 0 mm 1 mps 766 mmHg 48%
    02:00 +6°C° 0 mm 1 mps 766 mmHg 49%
    03:00 +6°C° 0 mm 1 mps 766 mmHg 50%
    04:00 +6°C° 0 mm 1 mps 766 mmHg 50%
    05:00 +6°C° 0 mm 1 mps 766 mmHg 51%
    06:00 +6°C° 0 mm 1 mps 765 mmHg 50%
    07:00 +7°C° 0 mm 1 mps 765 mmHg 50%
    08:00 +8°C° 0 mm 1 mps 765 mmHg 49%
    09:00 +9°C° 0 mm 2 mps 765 mmHg 46%
    10:00 +12°C° 0 mm 2 mps 764 mmHg 43%
    11:00 +13°C° 0 mm 3 mps 764 mmHg 40%
    12:00 +14°C° 0 mm 3 mps 763 mmHg 37%
    13:00 +16°C° 0 mm 3 mps 763 mmHg 34%
    14:00 +17°C° 0 mm 3 mps 762 mmHg 32%
    15:00 +17°C° 0 mm 2 mps 762 mmHg 32%
    16:00 +18°C° 0 mm 2 mps 761 mmHg 32%
    17:00 +19°C° 0 mm 1 mps 761 mmHg 31%
    18:00 +16°C° 0 mm 1 mps 761 mmHg 35%
    19:00 +15°C° 0 mm 1 mps 761 mmHg 39%
    20:00 +13°C° 0 mm 1 mps 761 mmHg 43%
    21:00 +13°C° 0 mm 1 mps 761 mmHg 44%
    22:00 +13°C° 0 mm 1 mps 761 mmHg 45%
    23:00 +13°C° 0 mm 1 mps 761 mmHg 46%
    Show more